629  
NZUS01 KOTX 302025  
RWROTX  
 
EASTERN WASHINGTON/NORTHERN IDAHO ROUNDUP  
NATIONAL WEATHER SERVICE, SPOKANE WA  
100 PM PDT THU MAR 30 2017  
 
NOTE: "FAIR" INDICATED FEW OR NO CLOUDS BELOW 12,000 FEET WITH NO  
SIGNIFICANT WEATHER AND/OR S TO VISIBILITY
.  
   
..NORTHEAST WASHINGTON AND NORTHERN IDAHO PANHANDLE
 
 
 
CITY SKY/WX TMP DP RH WIND PRES REMARKS
 
SPOKANE INTL PTSUNNY 46 35 65 CALM 29.96R  
SPOKANE DOWNTO CLOUDY 48 35 60 VRB3 29.96R  
COEUR D ALENE CLOUDY 47 37 68 W9 29.96R  
DEER PARK PTSUNNY 48 37 65 S7 29.95R  
SANDPOINT CLOUDY 46 37 71 W5 29.94R  
BONNERS FERRY MOCLDY 48 39 71 SW10 29.91S  
   
..SOUTHEAST WASHINGTON AND SOUTHERN IDAHO PANHANDLE
 
 
 
CITY SKY/WX TMP DP RH WIND PRES REMARKS
 
WALLA WALLA CLOUDY 50 37 61 S10 30.04S  
PULLMAN/MOSCOW CLOUDY 44 34 67 W17 29.99R  
LEWISTON CLOUDY 50 32 50 NW13G22 29.99R  
LOWELL N/A 45 42 89 CALM 29.97R  
GRANGEVILLE CLOUDY 41 32 70 N16G23 29.94R  
   
..COLUMBIA BASIN
 
 
 
CITY SKY/WX TMP DP RH WIND PRES REMARKS
 
EPHRATA SUNNY 57 26 30 NW20G26 30.00R  
MOSES LAKE SUNNY 57 30 35 N15G26 30.01R  
PASCO PTSUNNY 59 29 31 N13 30.04R  
RICHLAND CLEAR 61 32 34 NW13G22 30.04S  
HERMISTON MOSUNNY 59 35 40 W14G23 30.03F  
PENDLETON PTSUNNY 50 35 56 W13 30.04R  
   
..EAST SLOPES CASCADES
 
 
 
CITY SKY/WX TMP DP RH WIND PRES REMARKS
 
THE DALLES MOSUNNY 55 38 52 NW8G24 30.13R  
YAKIMA SUNNY 59 28 30 NW26G38 30.05R  
ELLENSBURG SUNNY 52 30 43 NW36G45 30.03R  
WENATCHEE SUNNY 55 24 30 NW28G37 30.01R  
OMAK MOSUNNY 57 32 38 N8 30.00R  
CHELAN N/A 55 23 28 W15G28 N/A  
SUNNYSIDE PTCLDY 57 29 34 NW17G28 30.04R  
   
..SOUTHERN BRITISH COLUMBIA
 
 
 
CITY SKY/WX TMP DP RH WIND PRES REMARKS
 
PENTICTON PTSUNNY 54 34 47 N13 30.02R  
CASTLEGAR PTSUNNY 50 37 62 N12 29.95R  
CRANBROOK PTSUNNY 46 36 66 S3 29.86R  
OSOYOOS N/A 52 34 50 NW12G20 N/A  
CRESTON N/A 46 39 76 NW8 N/A  
   
..WESTERN MONTANA
 
 
 
CITY SKY/WX TMP DP RH WIND PRES REMARKS
 
KALISPELL CLOUDY 50 33 52 N7 29.83R  
MISSOULA PTSUNNY 52 29 41 NW15 29.81S  
   
..NEIGHBORING CITIES
 
 
 
CITY SKY/WX TMP DP RH WIND PRES REMARKS
 
SEATTLE MOSUNNY 52 41 66 SW8 30.22R  
PORTLAND PTSUNNY 53 38 56 NW10 30.25F  
BOISE LGT RAIN 36 36 100 NW30G40 29.76R FOG  
GREAT FALLS PTSUNNY 59 27 29 MISG 29.71S  
CALGARY PTSUNNY 48 28 46 N17 29.79R  
 
CLICK HERE TO GO TO PREVIOUS BULLETINS.

The Nexlab WA Page
The Nexlab ID Page Main Text Page